STARLINK-32883, 62806

Orbit data source: Space-Track

STARLINK-32883, 62806 is a payload satellite owned by SpaceX/Seattle (US) in LEO that was launched on Fri, 24 Jan 2025 UTC via an FALCON 9 launch vehicle from the Air Force Western Test Range (AFWTR). Payload-class satellites include a variety of spacecraft equipped with specific instruments for various scientific and technological missions. These include communications satellites like Starlink; space stations such as the ISS; scientific satellites like the Hubble; Earth observation satellites from companies like Planet Labs, Umbra, and HawkEye 360; GPS; miniature CubeSats for education and research; and military/defense satellites.

Loading next visibility...
Identifier
62806, 2025-018A
Orbit
LEO
Last TLE update
7 hours ago
Origin
Manufacturer
SpaceX/Seattle
Mission
Operational Commercial Communications
Bus & Motor
STARLINK V2M, Unknown motor
Mass
730 kg wet, ~700 kg dry
Launch date (UTC)
2025-01-24 (5 months ago)
Launch vehicle
FALCON 9
Launch site
Air Force Western Test Range (AFWTR)
Object type
Payload
Rocket body
Debris
Shape & HBR
Box + 2 Pan, 29 m
Radar Cross Section
33.884 m², Large (>1 m²)

Expand to show TLE details & history

TLE from 7 hours ago
0 STARLINK-32883
1 62806U 25018A   25182.84216268  .00016722  00000-0  57587-3 0  9996
2 62806  53.1601  34.6867 0001318  85.4301 274.6851 15.30175962 25401
Epoch: 2025-07-01T20:12Z
TLE epoch observation values (Epoch: 2025-07-01T20:12:42.855Z)
Latitude
0.00003°
Longitude
171.37635°
Altitude
476.113 km
Speed
7.629 km/s
True Right ascension
02h 18m 44s
True Declination
0° 00' 00"
Sunlit
Object was in daylight at epoch
Visualization orbit readout
Latitude
53°
Longitude
-91.29741°
Altitude
480.871 km
Speed
7.632 km/s
Apparent Right ascension
05h 21m 03s
Apparent Declination
12° 31' 38"
Sunlit
Object is in daylight
Visualization observer readout
Local Sidereal Time
14:34:55
Azimuth
314.463° NW
Elevation
-24.916°
Doppler factor
1
Orbital elements
Apogee altitude
476.447 km
Perigee altitude
474.64 km
Semi-major axis
6,853.68 km
Eccentricity
0.00013
Inclination
53.1601°
RAAN
34.6867°
Arg. of periapsis
85.4301°
True anomaly
Unknown
Mean anomaly
274.6851°
Eccentric anomaly
Unknown
Mean motion
3.82523 °/min
Orbital period
94.11 mins
BSTAR
0.00057587
Loading maneuver chart data...
Loading SW <> Apogee altitude chart data...
Loading historical data...
Loading historical data...
Loading historical data...
Loading historical data...
Loading historical data...
Loading historical data...
Loading historical data...

STARLINK-32883 Visibility forecast

Observer location: undefined°, undefined°

Span
Click to sort rows by Start time (UTC) header in descending order
Start Az.
Max El. time (UTC)
Max El. Az.
Max El.
End time (UTC)
End Az.
6 mins2025-07-02 16:45:46.081Z225.305° WSW2025-07-02 16:48:46.081Z201.695° SSW43.409°2025-07-02 16:51:46.081Z52.602° ENE
4 mins2025-07-02 18:25:46.081Z303.681° NW2025-07-02 18:27:46.081Z345.561° N18.07°2025-07-02 18:29:46.081Z20.936° NNE
4 mins2025-07-02 21:43:46.081Z345.164° N2025-07-02 21:45:46.081Z21.159° NNE15.419°2025-07-02 21:47:46.081Z55.988° ENE
6 mins2025-07-02 23:21:46.081Z318.37° NNW2025-07-02 23:23:46.081Z357.799° N41.165°2025-07-02 23:27:46.081Z121.716° SE
|